FW3734 Weather Reports


time (UTC)temp
C
wind
direction
speed
KPH
gust
KPH
rain 1hr
cm
rain 24hr
cm
rain mn
cm
humidity
%
barometer
mb
20260510120037 12 5 0.0 0.0 0.00 0.28 0.20 89 1016.9
20260510114559 12 340 0.0 3.2 0.00 0.28 0.20 91 1016.4
20260510113042 12 9 0.0 6.4 0.00 0.28 0.20 92 1016.0
20260510111532 12 10 0.0 4.8 0.00 0.28 0.20 92 1015.5
20260510110035 12 19 1.6 6.4 0.00 0.28 0.20 93 1015.2
20260510104522 13 329 0.0 0.0 0.00 0.28 0.20 93 1015.1
20260510103019 13 259 0.0 3.2 0.00 0.28 0.20 93 1014.8
20260510101516 13 331 0.0 0.0 0.00 0.28 0.20 93 1014.5
20260510100014 13 306 0.0 0.0 0.00 0.28 0.20 93 1014.6
20260510094514 13 306 0.0 0.0 0.00 0.28 0.20 93 1014.4
20260510093011 13 90 0.0 1.6 0.00 0.28 0.20 93 1014.5
20260510091508 13 90 0.0 0.0 0.00 0.28 0.20 93 1014.3
20260510090006 14 90 0.0 0.0 0.00 0.28 0.20 92 1013.8
20260510084503 14 90 0.0 0.0 0.00 0.28 0.20 92 1013.5
20260510083002 14 90 0.0 0.0 0.00 0.28 0.20 92 1013.4
20260510081558 14 90 0.0 0.0 0.00 0.28 0.20 92 1013.1
20260510080100 14 90 0.0 0.0 0.00 0.28 0.20 92 1012.7
20260510074604 15 90 0.0 0.0 0.00 0.28 0.20 92 1012.8
20260510073052 15 90 0.0 0.0 0.00 0.28 0.20 91 1012.7
20260510071549 15 90 0.0 0.0 0.00 0.28 0.20 91 1012.1
20260510070104 15 91 0.0 3.2 0.00 0.28 0.20 91 1012.1
20260510064552 15 43 0.0 9.7 0.10 0.28 0.20 91 1012.3
20260510063044 15 30 0.0 4.8 0.18 0.28 0.20 91 1012.5
20260510061540 16 25 0.0 0.0 0.18 0.28 0.20 91 1012.2
20260510060041 16 43 0.0 6.4 0.20 0.28 0.20 90 1011.5
20260510054540 16 150 0.0 1.6 0.10 0.18 0.10 91 1011.3
20260510053035 16 224 0.0 0.0 0.05 0.10 0.03 91 1011.7
20260510051535 16 115 0.0 1.6 0.05 0.10 0.03 90 1011.5
20260510050031 16 360 0.0 6.4 0.05 0.08 0.00 89 1012.1
20260510044531 16 55 3.2 12.9 0.08 0.10 0.08 89 1012.1
20260510043029 16 321 4.8 16.1 0.05 0.08 0.05 88 1012.0
20260510041537 16 66 6.4 16.1 0.05 0.08 0.05 87 1011.3
20260510040027 16 5 8.0 29.0 0.03 0.05 0.03 85 1012.0
20260510034526 17 335 8.0 29.0 0.00 0.46 0.00 80 1011.9
20260510033024 20 323 9.7 30.6 0.00 0.46 0.00 68 1011.7
20260510031528 21 245 0.0 0.0 0.00 0.46 0.00 56 1009.9
20260510030020 21 245 0.0 0.0 0.00 0.46 0.00 54 1009.5
20260510024523 21 245 0.0 0.0 0.00 0.97 0.00 54 1009.3
20260510023020 21 245 0.0 0.0 0.00 0.97 0.00 53 1009.3
20260510021530 21 245 0.0 0.0 0.00 0.97 0.00 52 1009.2
20260510020022 21 245 0.0 0.0 0.00 0.97 0.00 53 1008.8
20260510014520 21 245 0.0 0.0 0.00 0.99 0.00 51 1008.5
20260510013017 22 245 0.0 0.0 0.00 0.99 0.00 51 1008.4
20260510011517 23 245 0.0 0.0 0.00 0.99 0.00 46 1008.3
20260510010017 24 245 0.0 0.0 0.00 0.99 0.00 44 1008.3
20260510004516 25 245 0.0 0.0 0.00 1.02 0.00 41 1008.0
20260510003017 26 246 0.0 0.0 0.00 1.02 0.00 40 1007.9
20260510001521 26 246 0.0 0.0 0.00 1.02 0.00 39 1007.8
20260510000015 26 319 0.0 0.0 0.00 1.02 0.00 37 1007.7
20260509234515 26 5 0.0 12.9 0.00 1.02 0.00 36 1007.7
20260509233014 26 237 0.0 0.0 0.00 1.02 0.00 37 1007.7
20260509231513 26 254 0.0 8.0 0.00 1.02 0.00 36 1007.5
20260509230012 27 221 0.0 14.5 0.00 1.02 0.00 37 1007.6
20260509224511 27 208 0.0 1.6 0.00 1.02 0.00 37 1007.5
20260509223009 27 343 0.0 12.9 0.00 1.02 0.00 39 1007.6
20260509221508 27 347 0.0 3.2 0.00 1.02 0.00 41 1007.6
20260509220007 27 186 0.0 8.0 0.00 1.02 0.00 40 1007.6
20260509214505 27 300 0.0 8.0 0.00 1.02 0.00 41 1007.6
20260509213006 27 347 0.0 12.9 0.00 1.02 0.00 40 1007.6
20260509211502 27 211 0.0 8.0 0.00 1.02 0.00 40 1007.7
20260509210104 26 224 0.0 12.9 0.00 1.02 0.00 40 1007.9
20260509204605 26 190 0.0 6.4 0.00 1.02 0.00 42 1007.9
20260509203058 26 198 0.0 14.5 0.00 1.02 0.00 40 1008.1
20260509201554 26 257 0.0 3.2 0.00 1.02 0.00 42 1008.2
20260509200053 26 284 1.6 20.9 0.00 1.02 0.00 41 1008.3
20260509194649 25 257 0.0 4.8 0.00 1.02 0.00 45 1008.2
20260509193046 25 244 0.0 14.5 0.00 1.02 0.00 46 1008.4
20260509191546 25 268 4.8 25.7 0.00 1.02 0.00 44 1008.5
20260509190041 25 326 1.6 25.7 0.00 1.02 0.00 45 1008.6
20260509184539 25 207 0.0 19.3 0.00 1.02 0.00 45 1008.6
20260509183034 25 289 0.0 16.1 0.00 1.02 0.00 48 1008.7
20260509181532 24 43 0.0 8.0 0.00 1.02 0.00 49 1008.7
20260509180027 24 259 0.0 16.1 0.00 1.02 0.00 51 1008.7
20260509174525 23 240 0.0 17.7 0.00 1.02 0.00 51 1008.8
20260509173020 23 307 0.0 11.3 0.00 1.02 0.00 57 1009.0
20260509171516 22 243 0.0 11.3 0.00 1.02 0.00 59 1009.2
20260509170013 21 333 0.0 14.5 0.00 1.02 0.00 63 1009.3
20260509164508 21 246 0.0 16.1 0.00 1.02 0.00 66 1009.5
20260509163016 20 235 0.0 16.1 0.00 1.02 0.00 68 1009.6
20260509161501 20 11 0.0 12.9 0.00 1.02 0.00 73 1009.6
20260509160100 19 196 1.6 8.0 0.00 1.02 0.00 73 1009.6
20260509154604 18 200 0.0 8.0 0.00 1.02 0.00 79 1009.4
20260509153050 17 186 1.6 11.3 0.00 1.02 0.00 81 1009.5
20260509151546 17 215 1.6 8.0 0.00 1.02 0.00 84 1009.4
20260509150042 16 153 0.0 4.8 0.00 1.02 0.00 87 1009.4
20260509144558 15 196 3.2 12.9 0.00 1.02 0.00 90 1009.3
20260509143039 15 238 1.6 11.3 0.00 1.02 0.00 92 1009.4
20260509141537 15 204 1.6 6.4 0.00 1.02 0.00 93 1009.4
20260509140052 14 248 3.2 9.7 0.00 1.02 0.00 93 1009.1
20260509134528 13 208 0.0 3.2 0.00 1.02 0.00 94 1009.0
20260509133027 13 219 3.2 11.3 0.00 1.02 0.00 94 1009.0
20260509131534 13 329 0.0 9.7 0.00 1.02 0.00 94 1009.0
20260509130028 13 197 1.6 6.4 0.00 1.02 0.00 94 1009.1
20260509124524 13 200 0.0 0.0 0.00 1.02 0.00 94 1009.1
20260509123025 13 247 0.0 6.4 0.00 1.02 0.00 94 1009.1
20260509121521 13 281 0.0 4.8 0.00 1.02 0.00 94 1009.0